Location: Dampvalley
(47.9094°N, 6.1967°E)
Time: 20:53:00
(UTC+00:00)

KKS-1 - Pass Details

Date: 12 December 2021
Orbit: 635 x 650 km, 98.2° (Epoch: 20 January)

Event Time Altitude Azimuth Distance (km) Brightness Sun altitude
Rises 06:19:40 0° 103° (ESE) 2,965 ? -9.0°
Maximum altitude 06:24:37 10° 54° (NE) 2,062 ? -8.2°
Drops below altitude 10° 06:24:43 10° 53° (NE) 2,063 ? -8.2°
Sets 06:29:35 0° 5° (N) 2,974 ? -7.5°
